カタログに戻る

COSMOS 1235

運用中通信LEO
NORAD 12114·PAYLOAD·🇷🇺 Russia

打ち上げ Dec 23, 1980 から Plesetsk Cosmodrome

Loading…

次のパス (今後24時間)

TLE

最新Source: Space-Track

元期: Sep 14, 2026, 19:41 UTC

1 12114U 80102H   26257.82017522 -.00000027  00000-0 -61253-4 0  9991
2 12114  73.9906 266.5433 0033082 322.3524 210.9601 12.56235924 96846

AllMySatでCOSMOS 1235をリアルタイム追跡

Download on the App Store